Location: Newark
(58.3833°N, 26.7167°E)
Time: 07:37:12
(UTC+00:00)

Envisat - Visible Passes

Search period start: 22 January 2020 00:00
Search period end: 01 February 2020 00:00
Orbit: 764 x 766 km, 98.1° (Epoch: 21 January)

Date Brightness Start Highest point End Pass type
(mag) Time Alt. Az. Time Alt. Az. Time Alt. Az.
22 Jan 4.2 04:40:59 10° NNE 04:45:54 46° E 04:50:48 10° S visible
22 Jan 3.6 16:04:32 10° S 16:09:34 61° WSW 16:14:39 10° NNW visible
22 Jan 6.1 17:47:14 10° WSW 17:49:42 13° W 17:52:10 10° NW visible
23 Jan 5.3 04:04:31 10° NNE 04:08:48 26° E 04:13:04 10° SSE visible
23 Jan 3.0 05:43:13 10° NNE 05:48:19 70° WNW 05:53:22 10° SSW visible
23 Jan 3.0 15:27:39 10° SSE 15:32:44 78° ENE 15:37:51 10° NNW visible
23 Jan 5.4 17:08:17 10° SW 17:12:21 24° W 17:16:27 10° NW visible
24 Jan 6.1 03:28:34 10° NE 03:31:30 15° E 03:34:26 10° ESE visible
24 Jan 3.4 05:06:24 10° NNE 05:11:31 69° ESE 05:16:35 10° S visible
24 Jan 4.4 16:30:25 10° SSW 16:35:12 41° W 16:40:02 10° NNW visible
25 Jan 4.5 04:29:45 10° NNE 04:34:32 39° E 04:39:17 10° SSE visible
25 Jan 3.3 15:53:10 10° S 15:58:15 72° WSW 16:03:22 10° NNW visible
25 Jan 6.0 17:35:07 10° WSW 17:38:13 16° W 17:41:19 10° NW visible
26 Jan 5.5 03:53:23 10° NE 03:57:22 23° E 04:01:20 10° SE visible
26 Jan 3.0 05:31:54 10° NNE 05:37:02 82° WNW 05:42:07 10° SSW visible
26 Jan 3.0 15:16:25 10° SSE 15:21:28 67° ENE 15:26:31 10° NNW visible
26 Jan 5.1 16:56:36 10° SSW 17:00:56 28° W 17:05:18 10° NNW visible
27 Jan 6.2 03:17:47 10° NE 03:20:01 13° E 03:22:15 10° ESE visible
27 Jan 3.7 04:55:08 10° NNE 05:00:11 58° ESE 05:05:12 10° S visible
27 Jan 4.1 16:18:55 10° S 16:23:50 48° W 16:28:48 10° NNW visible
27 Jan 6.4 18:03:24 10° W 18:04:10 10° WNW 18:04:57 10° WNW visible
28 Jan 4.9 04:18:32 10° NNE 04:23:09 33° E 04:27:44 10° SSE visible
28 Jan 3.1 15:41:50 10° SSE 15:46:56 85° WSW 15:52:04 10° NNW visible
28 Jan 5.8 17:23:11 10° SW 17:26:45 19° W 17:30:20 10° NW visible
29 Jan 5.8 03:42:19 10° NE 03:45:56 19° E 03:49:32 10° SE visible
29 Jan 3.1 05:20:36 10° NNE 05:25:44 86° ESE 05:30:51 10° SSW visible
29 Jan 3.1 15:05:14 10° SE 15:10:12 57° ENE 15:15:12 10° NNW visible
29 Jan 4.9 16:44:58 10° SSW 16:49:32 33° W 16:54:07 10° NNW visible
30 Jan 6.4 03:07:32 10° ENE 03:08:30 10° ENE 03:09:29 10° E visible
30 Jan 4.1 04:43:52 10° NNE 04:48:49 49° E 04:53:45 10° S visible
30 Jan 3.7 16:07:29 10° S 16:12:29 57° W 16:17:32 10° NNW visible
30 Jan 6.3 17:50:31 10° WSW 17:52:40 13° W 17:54:49 10° NW visible
31 Jan 5.2 04:07:21 10° NNE 04:11:45 28° E 04:16:06 10° SSE visible
31 Jan 3.0 15:30:33 10° SSE 15:35:38 83° ENE 15:40:46 10° NNW visible
31 Jan 5.5 17:11:22 10° SW 17:15:18 22° W 17:19:16 10° NW visible
